Year,Month,Day,Hour,Minute,Value (Times are PST for temperature in C)
2009,02,11,00,00,2.70
2009,02,11,00,01,2.70
2009,02,11,00,02,2.70
2009,02,11,00,03,2.70
2009,02,11,00,04,2.70
2009,02,11,00,05,2.70
2009,02,11,00,06,2.70
2009,02,11,00,07,2.70
2009,02,11,00,08,2.70
2009,02,11,00,09,2.70
2009,02,11,00,10,2.70
2009,02,11,00,11,2.70
2009,02,11,00,12,2.70
2009,02,11,00,13,2.70
2009,02,11,00,14,2.70
2009,02,11,00,15,2.70
2009,02,11,00,16,2.70
2009,02,11,00,17,2.70
2009,02,11,00,18,2.70
2009,02,11,00,19,2.70
2009,02,11,00,20,2.70
2009,02,11,00,21,2.70
2009,02,11,00,22,2.70
2009,02,11,00,23,2.70
2009,02,11,00,24,2.70
2009,02,11,00,25,2.70
2009,02,11,00,26,2.70
2009,02,11,00,27,2.70
2009,02,11,00,28,2.70
2009,02,11,00,29,2.70
2009,02,11,00,30,2.70
2009,02,11,00,31,2.70
2009,02,11,00,32,2.70
2009,02,11,00,33,2.70
2009,02,11,00,34,2.70
2009,02,11,00,35,2.70
2009,02,11,00,36,2.70
2009,02,11,00,37,2.70
2009,02,11,00,38,2.70
2009,02,11,00,39,2.70
2009,02,11,00,40,2.70
2009,02,11,00,41,2.70
2009,02,11,00,42,2.70
2009,02,11,00,43,2.70
2009,02,11,00,44,2.70
2009,02,11,00,45,2.70
2009,02,11,00,46,2.70
2009,02,11,00,47,2.70
2009,02,11,00,48,2.70
2009,02,11,00,49,2.70
2009,02,11,00,50,2.70
2009,02,11,00,51,2.70
2009,02,11,00,52,2.70
2009,02,11,00,53,2.70
2009,02,11,00,54,2.70
2009,02,11,00,55,2.70
2009,02,11,00,56,2.70
2009,02,11,00,57,2.70
2009,02,11,00,58,2.70
2009,02,11,00,59,2.70
2009,02,11,01,00,2.70
2009,02,11,01,01,2.70
2009,02,11,01,02,2.70
2009,02,11,01,03,2.70
2009,02,11,01,04,2.70
2009,02,11,01,05,2.70
2009,02,11,01,06,2.70
2009,02,11,01,07,2.70
2009,02,11,01,08,2.70
2009,02,11,01,09,2.70
2009,02,11,01,10,2.70
2009,02,11,01,11,2.70
2009,02,11,01,12,2.70
2009,02,11,01,13,2.70
2009,02,11,01,14,2.70
2009,02,11,01,15,2.70
2009,02,11,01,16,2.70
2009,02,11,01,17,2.70
2009,02,11,01,18,2.70
2009,02,11,01,19,2.70
2009,02,11,01,20,2.70
2009,02,11,01,21,2.70
2009,02,11,01,22,2.70
2009,02,11,01,23,2.70
2009,02,11,01,24,2.70
2009,02,11,01,25,2.70
2009,02,11,01,26,2.70
2009,02,11,01,27,2.70
2009,02,11,01,28,2.70
2009,02,11,01,29,2.70
2009,02,11,01,30,2.70
2009,02,11,01,31,2.70
2009,02,11,01,32,2.70
2009,02,11,01,33,2.70
2009,02,11,01,34,2.70
2009,02,11,01,35,2.70
2009,02,11,01,36,2.80
2009,02,11,01,37,2.80
2009,02,11,01,38,2.80
2009,02,11,01,39,2.80
2009,02,11,01,40,2.80
2009,02,11,01,41,2.80
2009,02,11,01,42,2.80
2009,02,11,01,43,2.80
2009,02,11,01,44,2.80
2009,02,11,01,45,2.80
2009,02,11,01,46,2.80
2009,02,11,01,47,2.80
2009,02,11,01,48,2.80
2009,02,11,01,49,2.80
2009,02,11,01,50,2.70
2009,02,11,01,51,2.70
2009,02,11,01,52,2.70
2009,02,11,01,53,2.70
2009,02,11,01,54,2.80
2009,02,11,01,55,2.80
2009,02,11,01,56,2.80
2009,02,11,01,57,2.70
2009,02,11,01,58,2.70
2009,02,11,01,59,2.70
2009,02,11,02,00,2.70
2009,02,11,02,01,2.70
2009,02,11,02,02,2.70
2009,02,11,02,03,2.70
2009,02,11,02,04,2.70
2009,02,11,02,05,2.70
2009,02,11,02,06,2.70
2009,02,11,02,07,2.70
2009,02,11,02,08,2.70
2009,02,11,02,09,2.70
2009,02,11,02,10,2.70
2009,02,11,02,11,2.70
2009,02,11,02,12,2.70
2009,02,11,02,13,2.70
2009,02,11,02,14,2.70
2009,02,11,02,15,2.70
2009,02,11,02,16,2.70
2009,02,11,02,17,2.70
2009,02,11,02,18,2.70
2009,02,11,02,19,2.70
2009,02,11,02,20,2.70
2009,02,11,02,21,2.70
2009,02,11,02,22,2.70
2009,02,11,02,23,2.70
2009,02,11,02,24,2.70
2009,02,11,02,25,2.70
2009,02,11,02,26,2.70
2009,02,11,02,27,2.70
2009,02,11,02,28,2.70
2009,02,11,02,29,2.70
2009,02,11,02,30,2.70
2009,02,11,02,31,2.70
2009,02,11,02,32,2.70
2009,02,11,02,33,2.70
2009,02,11,02,34,2.70
2009,02,11,02,35,2.70
2009,02,11,02,36,2.70
2009,02,11,02,37,2.70
2009,02,11,02,38,2.70
2009,02,11,02,39,2.70
2009,02,11,02,40,2.70
2009,02,11,02,41,2.70
2009,02,11,02,42,2.70
2009,02,11,02,43,2.70
2009,02,11,02,44,2.70
2009,02,11,02,45,2.70
2009,02,11,02,46,2.70
2009,02,11,02,47,2.70
2009,02,11,02,48,2.70
2009,02,11,02,49,2.70
2009,02,11,02,50,2.70
2009,02,11,02,51,2.70
2009,02,11,02,52,2.70
2009,02,11,02,53,2.70
2009,02,11,02,54,2.70
2009,02,11,02,55,2.70
2009,02,11,02,56,2.70
2009,02,11,02,57,2.70
2009,02,11,02,58,2.70
2009,02,11,02,59,2.70
2009,02,11,03,00,2.70
2009,02,11,03,01,2.70
2009,02,11,03,02,2.70
2009,02,11,03,03,2.70
2009,02,11,03,04,2.70
2009,02,11,03,05,2.70
2009,02,11,03,06,2.70
2009,02,11,03,07,2.70
2009,02,11,03,08,2.70
2009,02,11,03,09,2.70
2009,02,11,03,10,2.70
2009,02,11,03,11,2.70
2009,02,11,03,12,2.60
2009,02,11,03,13,2.60
2009,02,11,03,14,2.60
2009,02,11,03,15,2.60
2009,02,11,03,16,2.60
2009,02,11,03,17,2.60
2009,02,11,03,18,2.60
2009,02,11,03,19,2.60
2009,02,11,03,20,2.60
2009,02,11,03,21,2.60
2009,02,11,03,22,2.60
2009,02,11,03,23,2.60
2009,02,11,03,24,2.60
2009,02,11,03,25,2.60
2009,02,11,03,26,2.60
2009,02,11,03,27,2.60
2009,02,11,03,28,2.60
2009,02,11,03,29,2.60
2009,02,11,03,30,2.60
2009,02,11,03,31,2.60
2009,02,11,03,32,2.60
2009,02,11,03,33,2.60
2009,02,11,03,34,2.60
2009,02,11,03,35,2.60
2009,02,11,03,36,2.60
2009,02,11,03,37,2.60
2009,02,11,03,38,2.60
2009,02,11,03,39,2.60
2009,02,11,03,40,2.60
2009,02,11,03,41,2.60
2009,02,11,03,42,2.60
2009,02,11,03,43,2.50
2009,02,11,03,44,2.50
2009,02,11,03,45,2.50
2009,02,11,03,46,2.50
2009,02,11,03,47,2.50
2009,02,11,03,48,2.50
2009,02,11,03,49,2.50
2009,02,11,03,50,2.50
2009,02,11,03,51,2.50
2009,02,11,03,52,2.50
2009,02,11,03,53,2.50
2009,02,11,03,54,2.50
2009,02,11,03,55,2.40
2009,02,11,03,56,2.40
2009,02,11,03,57,2.40
2009,02,11,03,58,2.40
2009,02,11,03,59,2.40
2009,02,11,04,00,2.40
2009,02,11,04,01,2.40
2009,02,11,04,02,2.40
2009,02,11,04,03,2.40
2009,02,11,04,04,2.40
2009,02,11,04,05,2.40
2009,02,11,04,06,2.40
2009,02,11,04,07,2.30
2009,02,11,04,08,2.30
2009,02,11,04,09,2.30
2009,02,11,04,10,2.30
2009,02,11,04,11,2.30
2009,02,11,04,12,2.30
2009,02,11,04,13,2.30
2009,02,11,04,14,2.30
2009,02,11,04,15,2.30
2009,02,11,04,16,2.30
2009,02,11,04,17,2.30
2009,02,11,04,18,2.30
2009,02,11,04,19,2.30
2009,02,11,04,20,2.30
2009,02,11,04,21,2.30
2009,02,11,04,22,2.30
2009,02,11,04,23,2.30
2009,02,11,04,24,2.30
2009,02,11,04,25,2.30
2009,02,11,04,26,2.30
2009,02,11,04,27,2.40
2009,02,11,04,28,2.40
2009,02,11,04,29,2.40
2009,02,11,04,30,2.40
2009,02,11,04,31,2.40
2009,02,11,04,32,2.30
2009,02,11,04,33,2.30
2009,02,11,04,34,2.30
2009,02,11,04,35,2.30
2009,02,11,04,36,2.30
2009,02,11,04,37,2.30
2009,02,11,04,38,2.30
2009,02,11,04,39,2.30
2009,02,11,04,40,2.20
2009,02,11,04,41,2.20
2009,02,11,04,42,2.20
2009,02,11,04,43,2.20
2009,02,11,04,44,2.20
2009,02,11,04,45,2.20
2009,02,11,04,46,2.20
2009,02,11,04,47,2.20
2009,02,11,04,48,2.20
2009,02,11,04,49,2.20
2009,02,11,04,50,2.20
2009,02,11,04,51,2.20
2009,02,11,04,52,2.20
2009,02,11,04,53,2.20
2009,02,11,04,54,2.20
2009,02,11,04,55,2.20
2009,02,11,04,56,2.20
2009,02,11,04,57,2.20
2009,02,11,04,58,2.20
2009,02,11,04,59,2.20
2009,02,11,05,00,2.20
2009,02,11,05,01,2.20
2009,02,11,05,02,2.20
2009,02,11,05,03,2.20
2009,02,11,05,04,2.30
2009,02,11,05,05,2.30
2009,02,11,05,06,2.30
2009,02,11,05,07,2.30
2009,02,11,05,08,2.30
2009,02,11,05,09,2.30
2009,02,11,05,10,2.30
2009,02,11,05,11,2.30
2009,02,11,05,12,2.30
2009,02,11,05,13,2.30
2009,02,11,05,14,2.40
2009,02,11,05,15,2.40
2009,02,11,05,16,2.40
2009,02,11,05,17,2.40
2009,02,11,05,18,2.40
2009,02,11,05,19,2.40
2009,02,11,05,20,2.40
2009,02,11,05,21,2.30
2009,02,11,05,22,2.30
2009,02,11,05,23,2.30
2009,02,11,05,24,2.30
2009,02,11,05,25,2.30
2009,02,11,05,26,2.30
2009,02,11,05,27,2.20
2009,02,11,05,28,2.30
2009,02,11,05,29,2.30
2009,02,11,05,30,2.30
2009,02,11,05,31,2.30
2009,02,11,05,32,2.20
2009,02,11,05,33,2.20
2009,02,11,05,34,2.20
2009,02,11,05,35,2.20
2009,02,11,05,36,2.20
2009,02,11,05,37,2.20
2009,02,11,05,38,2.20
2009,02,11,05,39,2.20
2009,02,11,05,40,2.20
2009,02,11,05,41,2.20
2009,02,11,05,42,2.20
2009,02,11,05,43,2.20
2009,02,11,05,44,2.20
2009,02,11,05,45,2.20
2009,02,11,05,46,2.20
2009,02,11,05,47,2.20
2009,02,11,05,48,2.20
2009,02,11,05,49,2.20
2009,02,11,05,50,2.20
2009,02,11,05,51,2.20
2009,02,11,05,52,2.20
2009,02,11,05,53,2.20
2009,02,11,05,54,2.20
2009,02,11,05,55,2.20
2009,02,11,05,56,2.30
2009,02,11,05,57,2.30
2009,02,11,05,58,2.20
2009,02,11,05,59,2.20
2009,02,11,06,00,2.20
2009,02,11,06,01,2.20
2009,02,11,06,02,2.20
2009,02,11,06,03,2.20
2009,02,11,06,04,2.20
2009,02,11,06,05,2.20
2009,02,11,06,06,2.20
2009,02,11,06,07,2.20
2009,02,11,06,08,2.20
2009,02,11,06,09,2.20
2009,02,11,06,10,2.20
2009,02,11,06,11,2.20
2009,02,11,06,12,2.20
2009,02,11,06,13,2.20
2009,02,11,06,14,2.20
2009,02,11,06,15,2.20
2009,02,11,06,16,2.20
2009,02,11,06,17,2.20
2009,02,11,06,18,2.20
2009,02,11,06,19,2.20
2009,02,11,06,20,2.20
2009,02,11,06,21,2.20
2009,02,11,06,22,2.10
2009,02,11,06,23,2.10
2009,02,11,06,24,2.10
2009,02,11,06,25,2.10
2009,02,11,06,26,2.10
2009,02,11,06,27,2.10
2009,02,11,06,28,2.00
2009,02,11,06,29,2.00
2009,02,11,06,30,2.00
2009,02,11,06,31,2.00
2009,02,11,06,32,2.00
2009,02,11,06,33,2.00
2009,02,11,06,34,2.00
2009,02,11,06,35,1.90
2009,02,11,06,36,1.90
2009,02,11,06,37,1.90
2009,02,11,06,38,1.90
2009,02,11,06,39,1.90
2009,02,11,06,40,1.90
2009,02,11,06,41,1.90
2009,02,11,06,42,1.90
2009,02,11,06,43,1.90
2009,02,11,06,44,1.90
2009,02,11,06,45,1.90
2009,02,11,06,46,1.90
2009,02,11,06,47,2.00
2009,02,11,06,48,2.10
2009,02,11,06,49,2.10
2009,02,11,06,50,2.10
2009,02,11,06,51,2.20
2009,02,11,06,52,2.20
2009,02,11,06,53,2.20
2009,02,11,06,54,2.20
2009,02,11,06,55,2.20
2009,02,11,06,56,2.20
2009,02,11,06,57,2.20
2009,02,11,06,58,2.20
2009,02,11,06,59,2.20
2009,02,11,07,00,2.20
2009,02,11,07,01,2.20
2009,02,11,07,02,2.20
2009,02,11,07,03,2.20
2009,02,11,07,04,2.20
2009,02,11,07,05,2.20
2009,02,11,07,06,2.20
2009,02,11,07,07,2.20
2009,02,11,07,08,2.20
2009,02,11,07,09,2.20
2009,02,11,07,10,2.20
2009,02,11,07,11,2.20
2009,02,11,07,12,2.30
2009,02,11,07,13,2.30
2009,02,11,07,14,2.30
2009,02,11,07,15,2.30
2009,02,11,07,16,2.30
2009,02,11,07,17,2.20
2009,02,11,07,18,2.20
2009,02,11,07,19,2.20
2009,02,11,07,20,2.20
2009,02,11,07,21,2.20
2009,02,11,07,22,2.20
2009,02,11,07,23,2.20
2009,02,11,07,24,2.10
2009,02,11,07,25,2.00
2009,02,11,07,26,2.00
2009,02,11,07,27,1.90
2009,02,11,07,28,1.90
2009,02,11,07,29,1.80
2009,02,11,07,30,1.80
2009,02,11,07,31,1.80
2009,02,11,07,32,1.70
2009,02,11,07,33,1.60
2009,02,11,07,34,1.60
2009,02,11,07,35,1.60
2009,02,11,07,36,1.60
2009,02,11,07,37,1.60
2009,02,11,07,38,1.50
2009,02,11,07,39,1.50
2009,02,11,07,40,1.50
2009,02,11,07,41,1.50
2009,02,11,07,42,1.50
2009,02,11,07,43,1.50
2009,02,11,07,44,1.50
2009,02,11,07,45,1.50
2009,02,11,07,46,1.40
2009,02,11,07,47,1.50
2009,02,11,07,48,1.50
2009,02,11,07,49,1.50
2009,02,11,07,50,1.40
2009,02,11,07,51,1.40
2009,02,11,07,52,1.50
2009,02,11,07,53,1.50
2009,02,11,07,54,1.50
2009,02,11,07,55,1.50
2009,02,11,07,56,1.50
2009,02,11,07,57,1.50
2009,02,11,07,58,1.50
2009,02,11,07,59,1.50
2009,02,11,08,00,1.50
2009,02,11,08,01,1.50
2009,02,11,08,02,1.50
2009,02,11,08,03,1.50
2009,02,11,08,04,1.50
2009,02,11,08,05,1.60
2009,02,11,08,06,1.60
2009,02,11,08,07,1.60
2009,02,11,08,08,1.70
2009,02,11,08,09,1.70
2009,02,11,08,10,1.70
2009,02,11,08,11,1.80
2009,02,11,08,12,1.80
2009,02,11,08,13,1.80
2009,02,11,08,14,1.80
2009,02,11,08,15,1.80
2009,02,11,08,16,1.90
2009,02,11,08,17,1.90
2009,02,11,08,18,1.90
2009,02,11,08,19,1.90
2009,02,11,08,20,1.90
2009,02,11,08,21,2.00
2009,02,11,08,22,2.00
2009,02,11,08,23,2.00
2009,02,11,08,24,2.00
2009,02,11,08,25,2.10
2009,02,11,08,26,2.10
2009,02,11,08,27,2.10
2009,02,11,08,28,2.10
2009,02,11,08,29,2.10
2009,02,11,08,30,2.10
2009,02,11,08,31,2.10
2009,02,11,08,32,2.10
2009,02,11,08,33,2.10
2009,02,11,08,34,2.10
2009,02,11,08,35,2.10
2009,02,11,08,36,2.10
2009,02,11,08,37,2.10
2009,02,11,08,38,2.10
2009,02,11,08,39,2.10
2009,02,11,08,40,2.10
2009,02,11,08,41,2.10
2009,02,11,08,42,2.10
2009,02,11,08,43,2.20
2009,02,11,08,44,2.20
2009,02,11,08,45,2.20
2009,02,11,08,46,2.20
2009,02,11,08,47,2.20
2009,02,11,08,48,2.20
2009,02,11,08,49,2.20
2009,02,11,08,50,2.20
2009,02,11,08,51,2.20
2009,02,11,08,52,2.20
2009,02,11,08,53,2.20
2009,02,11,08,54,2.20
2009,02,11,08,55,2.20
2009,02,11,08,56,2.20
2009,02,11,08,57,2.20
2009,02,11,08,58,2.20
2009,02,11,08,59,2.20
2009,02,11,09,00,2.20
2009,02,11,09,01,2.20
2009,02,11,09,02,2.30
2009,02,11,09,03,2.30
2009,02,11,09,04,2.40
2009,02,11,09,05,2.50
2009,02,11,09,06,2.50
2009,02,11,09,07,2.60
2009,02,11,09,08,2.60
2009,02,11,09,09,2.70
2009,02,11,09,10,2.70
2009,02,11,09,11,2.80
2009,02,11,09,12,2.80
2009,02,11,09,13,2.90
2009,02,11,09,14,2.90
2009,02,11,09,15,3.00
2009,02,11,09,16,3.10
2009,02,11,09,17,3.10
2009,02,11,09,18,3.10
2009,02,11,09,19,3.20
2009,02,11,09,20,3.20
2009,02,11,09,21,3.30
2009,02,11,09,22,3.30
2009,02,11,09,23,3.30
2009,02,11,09,24,3.30
2009,02,11,09,25,3.30
2009,02,11,09,26,3.30
2009,02,11,09,27,3.30
2009,02,11,09,28,3.30
2009,02,11,09,29,3.40
2009,02,11,09,30,3.40
2009,02,11,09,31,3.50
2009,02,11,09,32,3.50
2009,02,11,09,33,3.60
2009,02,11,09,34,3.60
2009,02,11,09,35,3.70
2009,02,11,09,36,3.70
2009,02,11,09,37,3.70
2009,02,11,09,38,3.80
2009,02,11,09,39,3.80
2009,02,11,09,40,3.80
2009,02,11,09,41,3.80
2009,02,11,09,42,3.80
2009,02,11,09,43,3.80
2009,02,11,09,44,3.80
2009,02,11,09,45,3.90
2009,02,11,09,46,3.90
2009,02,11,09,47,4.00
2009,02,11,09,48,4.00
2009,02,11,09,49,4.00
2009,02,11,09,50,4.00
2009,02,11,09,51,4.10
2009,02,11,09,52,4.10
2009,02,11,09,53,4.20
2009,02,11,09,54,4.20
2009,02,11,09,55,4.20
2009,02,11,09,56,4.20
2009,02,11,09,57,4.30
2009,02,11,09,58,4.30
2009,02,11,09,59,4.30
2009,02,11,10,00,4.30
2009,02,11,10,01,4.40
2009,02,11,10,02,4.40
2009,02,11,10,03,4.50
2009,02,11,10,04,4.50
2009,02,11,10,05,4.50
2009,02,11,10,06,4.60
2009,02,11,10,07,4.60
2009,02,11,10,08,4.70
2009,02,11,10,09,4.70
2009,02,11,10,10,4.80
2009,02,11,10,11,4.80
2009,02,11,10,12,4.80
2009,02,11,10,13,4.80
2009,02,11,10,14,4.80
2009,02,11,10,15,4.80
2009,02,11,10,16,4.80
2009,02,11,10,17,4.80
2009,02,11,10,18,4.80
2009,02,11,10,19,4.80
2009,02,11,10,20,4.90
2009,02,11,10,21,4.90
2009,02,11,10,22,4.90
2009,02,11,10,23,4.90
2009,02,11,10,24,4.80
2009,02,11,10,25,4.80
2009,02,11,10,26,4.80
2009,02,11,10,27,4.80
2009,02,11,10,28,4.80
2009,02,11,10,29,4.80
2009,02,11,10,30,4.80
2009,02,11,10,31,4.90
2009,02,11,10,32,4.90
2009,02,11,10,33,4.90
2009,02,11,10,34,5.00
2009,02,11,10,35,5.10
2009,02,11,10,36,5.10
2009,02,11,10,37,5.10
2009,02,11,10,38,5.10
2009,02,11,10,39,5.10
2009,02,11,10,40,5.10
2009,02,11,10,41,4.90
2009,02,11,10,42,4.90
2009,02,11,10,43,4.90
2009,02,11,10,44,4.90
2009,02,11,10,45,4.90
2009,02,11,10,46,4.90
2009,02,11,10,47,4.90
2009,02,11,10,48,4.90
2009,02,11,10,49,4.90
2009,02,11,10,50,4.90
2009,02,11,10,51,4.90
2009,02,11,10,52,4.90
2009,02,11,10,53,4.80
2009,02,11,10,54,4.80
2009,02,11,10,55,4.70
2009,02,11,10,56,4.70
2009,02,11,10,57,4.80
2009,02,11,10,58,4.70
2009,02,11,10,59,4.70
2009,02,11,11,00,4.80
2009,02,11,11,01,4.80
2009,02,11,11,02,4.90
2009,02,11,11,03,4.90
2009,02,11,11,04,4.90
2009,02,11,11,05,4.90
2009,02,11,11,06,4.90
2009,02,11,11,07,4.80
2009,02,11,11,08,4.80
2009,02,11,11,09,4.70
2009,02,11,11,10,4.80
2009,02,11,11,11,4.80
2009,02,11,11,12,4.80
2009,02,11,11,13,4.90
2009,02,11,11,14,4.90
2009,02,11,11,15,4.90
2009,02,11,11,16,5.00
2009,02,11,11,17,5.10
2009,02,11,11,18,5.10
2009,02,11,11,19,5.20
2009,02,11,11,20,5.20
2009,02,11,11,21,5.20
2009,02,11,11,22,5.20
2009,02,11,11,23,5.20
2009,02,11,11,24,5.20
2009,02,11,11,25,5.30
2009,02,11,11,26,5.20
2009,02,11,11,27,5.20
2009,02,11,11,28,5.20
2009,02,11,11,29,5.20
2009,02,11,11,30,5.20
2009,02,11,11,31,5.20
2009,02,11,11,32,5.20
2009,02,11,11,33,5.20
2009,02,11,11,34,5.20
2009,02,11,11,35,5.20
2009,02,11,11,36,5.20
2009,02,11,11,37,5.30
2009,02,11,11,38,5.30
2009,02,11,11,39,5.30
2009,02,11,11,40,5.30
2009,02,11,11,41,5.30
2009,02,11,11,42,5.30
2009,02,11,11,43,5.30
2009,02,11,11,44,5.30
2009,02,11,11,45,5.30
2009,02,11,11,46,5.40
2009,02,11,11,47,5.40
2009,02,11,11,48,5.40
2009,02,11,11,49,5.40
2009,02,11,11,50,5.40
2009,02,11,11,51,5.40
2009,02,11,11,52,5.30
2009,02,11,11,53,5.30
2009,02,11,11,54,5.30
2009,02,11,11,55,5.30
2009,02,11,11,56,5.30
2009,02,11,11,57,5.20
2009,02,11,11,58,5.20
2009,02,11,11,59,5.20
2009,02,11,12,00,5.20
2009,02,11,12,01,5.20
2009,02,11,12,02,5.20
2009,02,11,12,03,5.10
2009,02,11,12,04,5.20
2009,02,11,12,05,5.20
2009,02,11,12,06,5.10
2009,02,11,12,07,5.10
2009,02,11,12,08,5.10
2009,02,11,12,09,5.10
2009,02,11,12,10,5.10
2009,02,11,12,11,5.10
2009,02,11,12,12,5.10
2009,02,11,12,13,5.10
2009,02,11,12,14,5.10
2009,02,11,12,15,5.10
2009,02,11,12,16,5.10
2009,02,11,12,17,5.10
2009,02,11,12,18,5.10
2009,02,11,12,19,5.10
2009,02,11,12,20,5.10
2009,02,11,12,21,5.10
2009,02,11,12,22,5.20
2009,02,11,12,23,5.30
2009,02,11,12,24,5.30
2009,02,11,12,25,5.30
2009,02,11,12,26,5.30
2009,02,11,12,27,5.30
2009,02,11,12,28,5.40
2009,02,11,12,29,5.40
2009,02,11,12,30,5.50
2009,02,11,12,31,5.50
2009,02,11,12,32,5.60
2009,02,11,12,33,5.60
2009,02,11,12,34,5.70
2009,02,11,12,35,5.70
2009,02,11,12,36,5.70
2009,02,11,12,37,5.70
2009,02,11,12,38,5.70
2009,02,11,12,39,5.70
2009,02,11,12,40,5.70
2009,02,11,12,41,5.70
2009,02,11,12,42,5.60
2009,02,11,12,43,5.60
2009,02,11,12,44,5.60
2009,02,11,12,45,5.60
2009,02,11,12,46,5.60
2009,02,11,12,47,5.50
2009,02,11,12,48,5.50
2009,02,11,12,49,5.50
2009,02,11,12,50,5.50
2009,02,11,12,51,5.50
2009,02,11,12,52,5.60
2009,02,11,12,53,5.60
2009,02,11,12,54,5.70
2009,02,11,12,55,5.70
2009,02,11,12,56,5.80
2009,02,11,12,57,5.90
2009,02,11,12,58,6.00
2009,02,11,12,59,6.10
2009,02,11,13,00,6.10
2009,02,11,13,01,6.10
2009,02,11,13,02,6.10
2009,02,11,13,03,6.10
2009,02,11,13,04,6.20
2009,02,11,13,05,6.20
2009,02,11,13,06,6.30
2009,02,11,13,07,6.40
2009,02,11,13,08,6.50
2009,02,11,13,09,6.60
2009,02,11,13,10,6.60
2009,02,11,13,11,6.60
2009,02,11,13,12,6.60
2009,02,11,13,13,6.60
2009,02,11,13,14,6.60
2009,02,11,13,15,6.60
2009,02,11,13,16,6.60
2009,02,11,13,17,6.70
2009,02,11,13,18,6.70
2009,02,11,13,19,6.70
2009,02,11,13,20,6.80
2009,02,11,13,21,6.80
2009,02,11,13,22,6.70
2009,02,11,13,23,6.60
2009,02,11,13,24,6.70
2009,02,11,13,25,6.80
2009,02,11,13,26,6.80
2009,02,11,13,27,6.90
2009,02,11,13,28,6.90
2009,02,11,13,29,6.90
2009,02,11,13,30,6.90
2009,02,11,13,31,6.80
2009,02,11,13,32,6.80
2009,02,11,13,33,6.80
2009,02,11,13,34,6.80
2009,02,11,13,35,6.80
2009,02,11,13,36,6.80
2009,02,11,13,37,6.80
2009,02,11,13,38,6.80
2009,02,11,13,39,6.70
2009,02,11,13,40,6.60
2009,02,11,13,41,6.50
2009,02,11,13,42,6.40
2009,02,11,13,43,6.40
2009,02,11,13,44,6.40
2009,02,11,13,45,6.30
2009,02,11,13,46,6.20
2009,02,11,13,47,6.30
2009,02,11,13,48,6.30
2009,02,11,13,49,6.30
2009,02,11,13,50,6.30
2009,02,11,13,51,6.40
2009,02,11,13,52,6.40
2009,02,11,13,53,6.40
2009,02,11,13,54,6.40
2009,02,11,13,55,6.50
2009,02,11,13,56,6.60
2009,02,11,13,57,6.60
2009,02,11,13,58,6.60
2009,02,11,13,59,6.50
2009,02,11,14,00,6.40
2009,02,11,14,01,6.40
2009,02,11,14,02,6.40
2009,02,11,14,03,6.40
2009,02,11,14,04,6.40
2009,02,11,14,05,6.40
2009,02,11,14,06,6.40
2009,02,11,14,07,6.40
2009,02,11,14,08,6.30
2009,02,11,14,09,6.30
2009,02,11,14,10,6.30
2009,02,11,14,11,6.30
2009,02,11,14,12,6.30
2009,02,11,14,13,6.20
2009,02,11,14,14,6.20
2009,02,11,14,15,6.10
2009,02,11,14,16,6.00
2009,02,11,14,17,6.00
2009,02,11,14,18,6.00
2009,02,11,14,19,6.20
2009,02,11,14,20,6.20
2009,02,11,14,21,6.20
2009,02,11,14,22,6.30
2009,02,11,14,23,6.40
2009,02,11,14,24,6.40
2009,02,11,14,25,6.40
2009,02,11,14,26,6.40
2009,02,11,14,27,6.50
2009,02,11,14,28,6.60
2009,02,11,14,29,6.60
2009,02,11,14,30,6.60
2009,02,11,14,31,6.60
2009,02,11,14,32,6.50
2009,02,11,14,33,6.60
2009,02,11,14,34,6.60
2009,02,11,14,35,6.60
2009,02,11,14,36,6.60
2009,02,11,14,37,6.60
2009,02,11,14,38,6.60
2009,02,11,14,39,6.50
2009,02,11,14,40,6.40
2009,02,11,14,41,6.30
2009,02,11,14,42,6.30
2009,02,11,14,43,6.20
2009,02,11,14,44,6.20
2009,02,11,14,45,6.20
2009,02,11,14,46,6.20
2009,02,11,14,47,6.20
2009,02,11,14,48,6.30
2009,02,11,14,49,6.20
2009,02,11,14,50,6.20
2009,02,11,14,51,6.20
2009,02,11,14,52,6.20
2009,02,11,14,53,6.20
2009,02,11,14,54,6.20
2009,02,11,14,55,6.20
2009,02,11,14,56,6.20
2009,02,11,14,57,6.30
2009,02,11,14,58,6.30
2009,02,11,14,59,6.30
2009,02,11,15,00,6.20
2009,02,11,15,01,6.30
2009,02,11,15,02,6.40
2009,02,11,15,03,6.40
2009,02,11,15,04,6.40
2009,02,11,15,05,6.40
2009,02,11,15,06,6.40
2009,02,11,15,07,6.40
2009,02,11,15,08,6.40
2009,02,11,15,09,6.30
2009,02,11,15,10,6.20
2009,02,11,15,11,6.20
2009,02,11,15,12,6.10
2009,02,11,15,13,6.00
2009,02,11,15,14,5.90
2009,02,11,15,15,5.80
2009,02,11,15,16,5.90
2009,02,11,15,17,5.90
2009,02,11,15,18,5.90
2009,02,11,15,19,5.90
2009,02,11,15,20,6.00
2009,02,11,15,21,6.00
2009,02,11,15,22,6.00
2009,02,11,15,23,6.00
2009,02,11,15,24,6.00
2009,02,11,15,25,6.00
2009,02,11,15,26,6.00
2009,02,11,15,27,6.00
2009,02,11,15,28,6.00
2009,02,11,15,29,6.00
2009,02,11,15,30,5.90
2009,02,11,15,31,5.90
2009,02,11,15,32,5.90
2009,02,11,15,33,5.90
2009,02,11,15,34,5.90
2009,02,11,15,35,5.90
2009,02,11,15,36,6.00
2009,02,11,15,37,5.90
2009,02,11,15,38,5.90
2009,02,11,15,39,5.90
2009,02,11,15,40,5.80
2009,02,11,15,41,5.80
2009,02,11,15,42,5.80
2009,02,11,15,43,5.80
2009,02,11,15,44,5.80
2009,02,11,15,45,5.90
2009,02,11,15,46,6.00
2009,02,11,15,47,6.00
2009,02,11,15,48,6.00
2009,02,11,15,49,6.00
2009,02,11,15,50,6.00
2009,02,11,15,51,6.00
2009,02,11,15,52,6.00
2009,02,11,15,53,6.00
2009,02,11,15,54,6.00
2009,02,11,15,55,6.00
2009,02,11,15,56,6.00
2009,02,11,15,57,6.00
2009,02,11,15,58,6.00
2009,02,11,15,59,6.00
2009,02,11,16,00,6.00
2009,02,11,16,01,6.10
2009,02,11,16,02,6.10
2009,02,11,16,03,6.10
2009,02,11,16,04,6.10
2009,02,11,16,05,6.20
2009,02,11,16,06,6.20
2009,02,11,16,07,6.20
2009,02,11,16,08,6.10
2009,02,11,16,09,6.10
2009,02,11,16,10,6.10
2009,02,11,16,11,6.10
2009,02,11,16,12,6.10
2009,02,11,16,13,6.00
2009,02,11,16,14,6.00
2009,02,11,16,15,5.90
2009,02,11,16,16,5.90
2009,02,11,16,17,5.90
2009,02,11,16,18,5.90
2009,02,11,16,19,5.90
2009,02,11,16,20,5.90
2009,02,11,16,21,5.90
2009,02,11,16,22,5.90
2009,02,11,16,23,5.80
2009,02,11,16,24,5.80
2009,02,11,16,25,5.80
2009,02,11,16,26,5.90
2009,02,11,16,27,5.80
2009,02,11,16,28,5.80
2009,02,11,16,29,5.80
2009,02,11,16,30,5.80
2009,02,11,16,31,5.70
2009,02,11,16,32,5.70
2009,02,11,16,33,5.70
2009,02,11,16,34,5.70
2009,02,11,16,35,5.70
2009,02,11,16,36,5.70
2009,02,11,16,37,5.70
2009,02,11,16,38,5.70
2009,02,11,16,39,5.70
2009,02,11,16,40,5.70
2009,02,11,16,41,5.70
2009,02,11,16,42,5.70
2009,02,11,16,43,5.60
2009,02,11,16,44,5.60
2009,02,11,16,45,5.60
2009,02,11,16,46,5.60
2009,02,11,16,47,5.60
2009,02,11,16,48,5.60
2009,02,11,16,49,5.60
2009,02,11,16,50,5.60
2009,02,11,16,51,5.60
2009,02,11,16,52,5.60
2009,02,11,16,53,5.60
2009,02,11,16,54,5.60
2009,02,11,16,55,5.50
2009,02,11,16,56,5.50
2009,02,11,16,57,5.50
2009,02,11,16,58,5.50
2009,02,11,16,59,5.50
2009,02,11,17,00,5.50
2009,02,11,17,01,5.50
2009,02,11,17,02,5.50
2009,02,11,17,03,5.50
2009,02,11,17,04,5.50
2009,02,11,17,05,5.50
2009,02,11,17,06,5.50
2009,02,11,17,07,5.50
2009,02,11,17,08,5.50
2009,02,11,17,09,5.50
2009,02,11,17,10,5.50
2009,02,11,17,11,5.50
2009,02,11,17,12,5.50
2009,02,11,17,13,5.40
2009,02,11,17,14,5.40
2009,02,11,17,15,5.40
2009,02,11,17,16,5.40
2009,02,11,17,17,5.40
2009,02,11,17,18,5.40
2009,02,11,17,19,5.30
2009,02,11,17,20,5.30
2009,02,11,17,21,5.30
2009,02,11,17,22,5.30
2009,02,11,17,23,5.30
2009,02,11,17,24,5.30
2009,02,11,17,25,5.30
2009,02,11,17,26,5.30
2009,02,11,17,27,5.30
2009,02,11,17,28,5.30
2009,02,11,17,29,5.30
2009,02,11,17,30,5.20
2009,02,11,17,31,5.20
2009,02,11,17,32,5.20
2009,02,11,17,33,5.20
2009,02,11,17,34,5.20
2009,02,11,17,35,5.20
2009,02,11,17,36,5.20
2009,02,11,17,37,5.20
2009,02,11,17,38,5.20
2009,02,11,17,39,5.20
2009,02,11,17,40,5.20
2009,02,11,17,41,5.10
2009,02,11,17,42,5.10
2009,02,11,17,43,5.10
2009,02,11,17,44,5.10
2009,02,11,17,45,5.10
2009,02,11,17,46,5.10
2009,02,11,17,47,5.10
2009,02,11,17,48,5.10
2009,02,11,17,49,5.10
2009,02,11,17,50,5.10
2009,02,11,17,51,5.10
2009,02,11,17,52,5.10
2009,02,11,17,53,5.10
2009,02,11,17,54,5.10
2009,02,11,17,55,4.90
2009,02,11,17,56,4.90
2009,02,11,17,57,4.90
2009,02,11,17,58,4.90
2009,02,11,17,59,4.90
2009,02,11,18,00,4.90
2009,02,11,18,01,4.90
2009,02,11,18,02,4.80
2009,02,11,18,03,4.80
2009,02,11,18,04,4.80
2009,02,11,18,05,4.70
2009,02,11,18,06,4.70